Content
SEND FEEDBACK

Daily
Averages
Monthly
Summary
United States of America

ONIDA, SOUTH DAKOTA


Home > North America > United States > South Dakota
Elevation: 1840 feet     Latitude: 44 44N     Longitude: 100 09W

WEATHER
 
SELECT A DAY
Number of Records: 56,248;   Date Range: 1/1/95 - 9/15/14
 
SHARE

PRINT THIS DATA

[ ← Previous Day ]
WEATHER ALMANAC - FEBRUARY 13, 2013
[ Next Day → ]
[ °C ]   °F
Weather ElementAverageHighLow
Temperature37.1 °F46.9 °F (2:53 pm)28 °F (6:53 am)
Dewpoint27.2 °F33.1 °F (2:53 pm)21.9 °F (5:53 am)
Humidity68 %78 % (6:53 am)55 % (12:53 pm)
Barometer29.76 in29.86 in (1:53 am)29.65 in (2:53 pm)
Wind Speed15.2 mph23 mph (3:53 pm)
Wind Gust28.8 mph (8:53 pm)
Weather ElementAverage
Visibility10 mi
Wind DirectionW (274.8 °)

Weather ElementTotal
Precipitation---
Heating Degree Days27.6 (Base 65)
Averaged from 23 records on February 13, 2013
WEATHER CONDITIONS BREAKOUT
WIND DIRECTION BREAKOUT
WEATHER BY HOUR - FEBRUARY 13, 2013
[ °C ]   °F
Local TimeTemperatureDewpointHumidityBarometerVisibilityWind DirectionWind SpeedGust SpeedPrecipitationEventsConditions
1:53 AM33.1 °F25.0 °F72 %29.86 in10.0 miWSW (250°)9.2 mphMostly Cloudy
2:53 AM32.0 °F24.1 °F73 %29.85 in10.0 miWSW (250°)9.2 mphScattered Clouds
3:53 AM33.1 °F24.1 °F70 %29.82 in10.0 miWest (260°)9.2 mphOvercast
4:53 AM30.9 °F23.0 °F72 %29.81 in10.0 miWSW (250°)9.2 mphOvercast
5:53 AM28.9 °F21.9 °F75 %29.81 in10.0 miWSW (250°)9.2 mphClear
6:53 AM28.0 °F21.9 °F78 %29.79 in10.0 miWSW (240°)9.2 mphClear
7:53 AM30.0 °F23.0 °F75 %29.77 in10.0 miWSW (240°)10.4 mphOvercast
8:53 AM30.9 °F23.0 °F72 %29.77 in10.0 miWSW (240°)12.7 mphMostly Cloudy
9:53 AM33.1 °F24.1 °F70 %29.73 in10.0 miWSW (240°)11.5 mphOvercast
10:53 AM37.9 °F26.1 °F62 %29.71 in10.0 miWest (260°)16.1 mphScattered Clouds
11:53 AM43.0 °F28.0 °F56 %29.68 in10.0 miWest (260°)19.6 mphPartly Cloudy
12:53 PM44.1 °F28.9 °F55 %29.67 in10.0 miWest (270°)17.3 mph25.3 mphMostly Cloudy
1:53 PM46.0 °F32.0 °F58 %29.66 in10.0 miWNW (290°)20.7 mphPartly Cloudy
2:53 PM46.9 °F33.1 °F59 %29.65 in10.0 miWNW (300°)19.6 mphMostly Cloudy
3:53 PM46.0 °F30.9 °F56 %29.67 in10.0 miNW (310°)23.0 mph27.6 mphMostly Cloudy
4:53 PM44.1 °F30.0 °F58 %29.69 in10.0 miNW (310°)20.7 mphClear
5:53 PM41.0 °F30.9 °F67 %29.72 in10.0 miWest (280°)11.5 mphMostly Cloudy
6:53 PM37.9 °F30.0 °F73 %29.76 in10.0 miWNW (290°)13.8 mphClear
7:53 PM39.0 °F28.9 °F67 %29.78 in10.0 miWNW (300°)19.6 mphClear
8:53 PM37.9 °F28.9 °F70 %29.81 in10.0 miNW (310°)23.0 mph28.8 mphMostly Cloudy
9:53 PM37.0 °F30.0 °F76 %29.83 in10.0 miNW (310°)16.1 mphOvercast
10:53 PM37.0 °F28.9 °F73 %29.84 in10.0 miWNW (300°)18.4 mphOvercast
11:53 PM36.0 °F28.9 °F76 %29.85 in10.0 miNW (310°)19.6 mph27.6 mphPartly Cloudy
Hourly data recorded from KPIR, located miles away from Onida, South Dakota







STORIES FROM OUR PARTNERS